Location: Waning Moon II Observatory
(30.3730°N, 89.7620°W)
Time: 20:25:06
(UTC-05:00)

Daily predictions for brighter satellites

Satellite Brightness Start Highest point End
(mag) Time Altitude Azimuth Time Altitude Azimuth Time Altitude Azimuth
FengYun 1-2 T 4.3 20:14:19 10° SSE 20:19:54 87° WSW 20:25:28 10° NNW
Cosmos 1656 Rocket 3.7 20:17:34 10° NNW 20:23:00 65° ENE 20:28:30 10° SSE
Cosmos 1346 2.7 20:22:58 10° S 20:25:41 73° E 20:28:27 10° NNE
Cosmos 1666 3.8 20:24:14 10° NNE 20:27:22 25° E 20:30:31 10° SE
Cosmos 192 4.3 20:23:38 10° S 20:28:32 78° ESE 20:33:26 10° NNE
Meteor 1-13 Rocket 4.3 20:22:40 10° S 20:28:37 79° E 20:34:30 10° N
Cosmos 1833 Rocket 4.2 20:25:36 10° SE 20:28:47 16° E 20:31:58 10° ENE
CZ-2D R/B 3.3 20:26:10 10° SSE 20:29:56 65° ENE 20:33:43 10° N
Cosmos 1437 4.2 20:27:09 10° SSW 20:30:12 41° W 20:33:16 10° N
H-2A R/B 3.1 20:27:30 10° S 20:31:10 64° W 20:34:51 10° NNW
Meteor 1-29 4.1 20:29:36 10° NE 20:32:18 22° E 20:35:00 10° SSE
Cosmos 1536 Rocket 4.3 20:31:44 10° SSW 20:35:58 57° W 20:40:13 10° N
Aurora 2 Rocket 4.2 20:30:40 10° W 20:36:25 46° S 20:43:59 12° ESE
DNEPR-1 R/B 4.0 20:32:59 10° NNW 20:37:14 50° ENE 20:41:44 11° SE
Iridium 4 Rocket 4.4 20:34:35 10° N 20:39:54 58° W 20:45:32 10° SSW
Cosmos 1025 Rocket 3.6 20:37:28 10° SSE 20:41:22 36° E 20:45:16 10° NNE
Okean 1-7 Rocket 4.0 20:37:25 10° SSE 20:41:36 43° E 20:45:52 10° NNE
Cosmos 1975 3.9 20:38:16 10° NNW 20:42:12 47° W 20:46:07 10° SSW
Spot 2 Rocket 3.6 20:43:34 10° S 20:48:35 78° WSW 20:53:38 10° NNW
Cosmos 1943 Rocket 4.2 20:46:59 10° NW 20:51:25 25° WSW 20:55:50 10° SSW
SL-27 R/B 4.4 20:49:28 10° SW 20:52:49 34° WNW 20:56:11 10° N
Meteor 2-4 Rocket 3.7 20:47:36 10° S 20:53:14 85° E 20:59:03 10° N
USA 186 2.2 20:56:44 10° S 20:59:53 58° W 21:02:56 10° NNW
Cosmos 1437 Rocket 4.0 20:56:55 10° NNE 21:00:06 24° ENE 21:01:23 20° ESE
GENESIS II 4.3 20:57:09 10° NNW 21:01:03 71° WSW 21:03:54 17° SSE
Cosmos 1939 Rocket 3.0 21:00:28 19° SE 21:02:58 50° ENE 21:06:43 10° N
CZ-4B DEB 3.1 21:04:41 29° SE 21:05:43 41° ENE 21:08:33 10° N
Hubble Space Telescope 1.1 21:01:58 10° WSW 21:05:55 44° SSE 21:08:03 23° ESE
GPS 2-04 Rocket1 3.1 21:06:57 10° SW 21:10:00 31° SSE 21:10:20 30° SE
Envisat 2.9 21:06:26 13° SSE 21:11:01 86° ENE 21:16:08 10° N
SPOT 5 4.5 21:16:39 15° ENE 21:17:15 15° ENE 21:19:42 10° NNE
Cosmos 2058 Rocket 4.5 21:14:04 10° NNE 21:17:28 21° ENE 21:18:01 21° E
Cosmos 2056 Rocket 3.9 21:12:35 10° N 21:17:29 44° ENE 21:19:45 27° SE
SAR-Lupe-4 3.5 21:20:51 29° SSE 21:22:35 88° WSW 21:26:12 10° NNW
SJ-11-01 4.3 21:21:17 20° S 21:24:33 84° WSW 21:29:16 10° NNW
CZ-3A R/B 3.2 21:22:58 10° WSW 21:28:38 31° WNW 21:30:55 10° N
Cosmos 2181 Rocket 4.1 21:25:10 20° SSE 21:29:37 57° E 21:35:45 10° NNE
Cosmos 1610 Rocket 4.5 21:24:25 10° N 21:30:39 83° W 21:35:34 17° S
Helios 1A 3.6 21:28:06 18° S 21:31:03 54° W 21:35:10 10° NNW
YAOGAN 6 2.4 21:31:01 51° SSE 21:31:47 74° ENE 21:35:16 10° N
Resurs 01 Rocket 4.2 21:32:44 10° SW 21:35:38 17° W 21:38:32 10° NW
ASTRO E2 4.3 21:33:13 10° WSW 21:36:15 21° SSW 21:36:32 21° SSW
OAO 2 Rocket 3.3 21:31:54 10° WNW 21:36:50 75° NNE 21:38:53 35° E
CRYOSAT 2 4.3 21:33:58 25° S 21:36:50 86° W 21:41:42 10° N
SAR-Lupe-1 4.4 21:37:34 37° SSW 21:38:47 61° W 21:42:20 10° NNW
COSMOS 2487 3.2 21:37:58 13° SSW 21:40:57 53° WNW 21:44:27 10° N
Meteor 2-19 Rocket 4.4 21:35:01 10° N 21:41:08 66° E 21:43:54 34° SSE
Cosmos 2082 Rocket 2.1 21:35:45 10° SSW 21:41:26 88° ESE 21:47:07 10° NNE
ERS-1 Rocket 2.9 21:41:26 40° SE 21:43:11 70° ENE 21:48:11 10° N
Cosmos 405 4.4 21:41:26 10° NNW 21:44:40 35° W 21:46:14 23° SW
CENTAUR R/B 4.4 21:39:16 10° NW 21:46:25 34° WSW 21:53:43 10° S
Cosmos 921 Rocket 3.0 21:44:27 10° N 21:48:50 64° ENE 21:49:20 58° ESE
Cosmos 1452 Rocket 4.3 21:44:24 10° N 21:49:11 34° ENE 21:49:50 33° E
Cosmos 2228 3.6 21:45:14 10° N 21:49:02 40° ENE 21:49:02 40° ENE
Cosmos 2278 3.8 21:45:01 10° NNW 21:50:39 62° ENE 21:52:12 45° SE
Cosmos 962 Rocket 4.4 21:45:06 10° N 21:51:19 78° E 21:53:54 37° SSE
PSLV R/B 4.2 21:52:54 10° WNW 21:55:08 42° WNW 21:55:08 42° WNW
ASTEX 1 4.1 21:53:11 21° SSW 21:56:09 48° W 22:00:54 10° NNW
Cosmos 1656 4.0 21:52:37 10° N 21:57:54 47° ENE 21:58:44 44° E
SPOT 1/Viking Rocket 4.3 21:59:04 35° ENE 21:59:20 36° ENE 22:04:00 10° N
MetOp-A 4.0 22:01:42 53° SSE 22:02:59 82° ENE 22:08:21 10° N
Cosmos 1697 Rocket 3.4 21:58:20 10° N 22:03:29 36° ENE 22:04:02 36° ENE
SL-24 R/B - RUBIN 2 4.5 22:02:03 25° SSW 22:06:08 69° ESE 22:12:44 10° NNE
SL-8 Rocket 4.0 22:01:54 10° N 22:08:08 64° E 22:09:24 52° SE
Cosmos 468 4.5 22:09:22 40° SSW 22:11:18 81° WNW 22:16:36 10° NNE
Cosmos 2369 3.6 22:05:56 10° NNW 22:11:40 85° WSW 22:12:47 60° S
Cosmos 1833 Rocket 3.4 22:06:44 10° SW 22:12:10 51° WNW 22:17:38 10° N
Cosmos 1602 Rocket 4.1 22:14:04 46° NE 22:14:04 46° NE 22:17:18 10° NNE
Tiangong 2 4.2 22:13:08 10° N 22:13:55 11° N 22:14:31 10° NNE
Cosmos 158 Rocket 3.9 22:14:59 67° E 22:14:59 67° E 22:20:12 10° NNE
Cosmos 2366 rocket 4.1 22:09:38 10° N 22:15:36 51° E 22:16:01 50° E
MOS 1-B Rocket 4.0 22:16:21 49° S 22:18:00 75° WSW 22:24:21 10° NNW
Cosmos 1959 Rocket 4.4 22:29:26 10° N 22:35:49 90° ENE 22:36:30 73° S
Terra 3.1 22:38:44 31° NE 22:38:44 31° NE 22:41:45 10° N
Cosmos 1809 Rocket 4.2 22:33:30 10° N 22:39:37 90° NW 22:39:56 82° S
ARGOS 3.6 22:43:31 52° WSW 22:43:50 53° W 22:49:08 10° NNW
H-2A R/B 2.3 22:47:26 64° NNW 22:47:26 64° NNW 22:51:42 10° NNW
Hubble Space Telescope 3.4 22:42:53 10° W 22:43:26 13° W 22:43:26 13° W
Cosmos 1980 Rocket 2.6 22:47:40 10° N 22:52:22 52° NNE 22:52:22 52° NNE
SPOT 5 4.2 22:55:53 30° WNW 22:55:53 30° WNW 22:58:56 10° NNW
Meteor 2-16 Rocket 4.5 22:50:06 10° N 22:55:44 71° NE 22:55:44 71° NE
Mugunghwa Rocket 4.4 22:51:32 10° W 22:59:16 65° SSW 22:59:16 65° SSW
Cosmos 2218 Rocket 4.4 22:54:24 10° NNW 23:00:24 54° W 23:00:55 53° WSW
H-2A R/B 3.7 23:05:36 33° N 23:05:36 33° N 23:08:07 10° N
Cosmos 2322 Rocket 3.8 23:01:06 10° N 23:04:45 23° NE 23:04:45 23° NE
Lacrosse 5 3.4 23:12:01 29° NNE 23:12:01 29° NNE 23:14:34 10° NNE
Nadezhda 3 Rocket 4.2 23:19:34 68° NW 23:19:34 68° NW 23:25:26 10° N
USA 267 4.4 23:22:16 10° NE 23:25:20 30° ENE 23:25:20 30° ENE
Lacrosse 5 rocket 4.1 23:28:25 10° N 23:30:19 16° NNE 23:30:19 16° NNE
NOSS 3-1 (C) 4.5 23:30:14 10° NNW 23:37:51 52° ENE 23:38:12 52° ENE
